ATHENA (46275 NORAD) Tracking and Keplerian Element Data

This shows tracking and keplerian element data for the satellite.

Feedback or suggestion? Click here.




ElementValue
Catalog46275
NameATHENA
Epoch Orbit765
Epoch Day297.63909858
Epoch Year2020
RAAN9.8672
Inclination97.4592
Eccentricity0.0002877
Argument of Perigee91.4345
Mean Anonmoly268.7218
Mean Motion15.15993241
Decay Rate4.74E-06
L11 46275U 20061D 20297.63909858 .00000474 00000-0 28119-4 0 9991
L22 46275 97.4592 9.8672 0002877 91.4345 268.7218 15.15993241 7656

Live tracking and technical data element details for ATHENA (NORAD 46275). ATHENA can be tracked NOW for your location showing map with azimuth and elevation plus other details from your city location.

Track the satellite on the map from your city or location and see movement details for azimuth, elevation, latitude, longitude, range, height, and movement on the map or in text.







IsCatalogInMostPopularTable: catalog: 46275, numindb: 9
Update: records affected: 1



GetName: 46275 ATHENA

Hit Count: updated at: Sun, 25 Oct 2020 08:10:21 GMT